Regional Weather Roundup
Issued by NWS

Home | Current Version | Previous Version | Graphics & Text | Print | Product List | Glossary On
Versions: 1 2 3 4 5 6 7 8 9 10 11 12 13 14 15 16 17 18 19 20 21 22 23 24 25 26 27 28 29 30 31 32 33 34 35 36 37 38 39 40 41 42 43 44 45 46 47 48 49 50
822
ASUS43 KOAX 021410
RWRNE

WEATHER ROUNDUP FOR NEBRASKA
NATIONAL WEATHER SERVICE OMAHA NE
900 AM CDT MON MAY 02 2016

NOTES: SATELLITE DATA IS BEING USED TO AUGMENT CLOUD COVER ABOVE
       12000 FEET.
       "FAIR" INDICATES FEW OR NO CLOUDS BELOW 12,000 FEET WITH NO
       SIGNIFICANT WEATHER AND/OR OBSTRUCTIONS TO VISIBILITY.

  * THESE STATIONS DO NOT REPORT WEATHER SUCH AS RAIN...SNOW OR FOG.

NEZ001>004-019>022-054>056-021500-
NEBRASKA PANHANDLE

CITY           SKY/WX    TMP DP  RH WIND       PRES   REMARKS
SCOTTSBLUFF    SUNNY     38  30  73 W10       30.22F WCI  31
ALLIANCE       SUNNY     34  31  88 W7        30.19S WCI  28
CHADRON        SUNNY     41  35  79 SW6       30.18F
KIMBALL        SUNNY     35  28  76 W8        30.23S WCI  28
SIDNEY         SUNNY     35  27  72 W10       30.22S WCI  27
$$

NEZ057>060-069>072-079>082-021500-
SOUTHWEST NEBRASKA

CITY           SKY/WX    TMP DP  RH WIND       PRES   REMARKS
NORTH PLATTE   SUNNY     41  34  76 W7        30.20S
IMPERIAL       SUNNY     39  31  72 NW9       30.22S WCI  33
LEXINGTON      SUNNY     41  36  83 NW7       30.20S
MCCOOK         SUNNY     42  34  73 W7        30.22R
OGALLALA       SUNNY     36  31  84 W9        30.21F WCI  29
$$

NEZ005>010-023>029-035>040-094-021500-
NORTH CENTRAL NEBRASKA

CITY           SKY/WX    TMP DP  RH WIND       PRES   REMARKS
VALENTINE      MOSUNNY   42  35  76 W7        30.16F
AINSWORTH      SUNNY     46  38  73 W8        30.16F
BROKEN BOW     SUNNY     46  36  68 CALM      30.18S
O`NEILL        SUNNY     48  39  69 W6        30.16F
ORD            SUNNY     42  37  82 N3        30.17S
THEDFORD       SUNNY     42  38  83 NW3       30.19S
$$

NEZ041-046>049-061>064-073>077-083>087-021500-
SOUTH CENTRAL NEBRASKA

CITY           SKY/WX    TMP DP  RH WIND       PRES   REMARKS
GRAND ISLAND   SUNNY     46  38  73 NW8       30.18S
AURORA         SUNNY     47  42  81 NW8       30.18S
HASTINGS       SUNNY     47  37  68 NW10      30.18S
HEBRON         SUNNY     50  43  75 NW8       30.17S
HOLDREGE       SUNNY     44  38  80 NW3       30.20R
KEARNEY *      SUNNY     43  37  81 NW7       30.20R
YORK           SUNNY     48  41  76 NW12      30.16F
$$

NEZ011>018-030>034-042>045-021500-
NORTHEAST NEBRASKA

CITY           SKY/WX    TMP DP  RH WIND       PRES   REMARKS
NORFOLK        SUNNY     45  38  76 W6        30.16S
ALBION         SUNNY     46  39  78 NW7       30.17S
BLAIR          PTSUNNY   51  42  69 N7        30.14R
COLUMBUS *     SUNNY     48  36  61 W7        30.17S
FREMONT        SUNNY     49  41  74 NW6       30.16R
TEKAMAH        SUNNY     49  42  77 N7        30.15S
WAYNE          SUNNY     47  40  75 NW6       30.16S
$$

NEZ050>053-065>068-078-088>093-021500-
SOUTHEAST NEBRASKA

CITY           SKY/WX    TMP DP  RH WIND       PRES   REMARKS
LINCOLN        SUNNY     53  40  61 N10       30.17S
OMAHA EPPLEY   MOSUNNY   50  43  77 NW3       30.15S
BEATRICE       CLOUDY    49  44  83 N7        30.16R
FALLS CITY     CLOUDY    51  45  79 N8        30.13R
NEBRASKA CITY  CLOUDY    49  44  82 N8        30.14S
PLATTSMOUTH    MOSUNNY   50  42  73 N5        30.15R
$$

NEZ044-045-051>053-067-021500-
OMAHA AREA

CITY           SKY/WX    TMP DP  RH WIND       PRES   REMARKS
OMAHA EPPLEY   MOSUNNY   50  43  77 NW3       30.15S
BLAIR          PTSUNNY   51  42  69 N7        30.14R
FREMONT        SUNNY     49  41  74 NW6       30.16R
MILLARD        MOSUNNY   51  41  67 CALM      30.15S
OFFUTT AFB     MOSUNNY   52  43  70 NE6       30.14S
PLATTSMOUTH    MOSUNNY   50  42  73 N5        30.15R
WAHOO          FAIR      49  41  72 NW8       30.15S
$$




USA.gov is the U.S. government's official web portal to all federal, state and local government web resources and services.